Miscellaneous Local Product
Issued by NWS North Platte, NE

Home | Current Version | Previous Version | Graphics & Text | Print | Product List | Glossary On
Versions: 1 2 3 4 5 6 7 8 9 10 11 12 13 14 15 16 17 18 19 20 21 22 23 24 25 26 27 28 29 30 31 32 33 34 35 36 37 38 39 40 41 42 43 44 45 46 47 48 49 50
879
AXUS43 KLBF 232110
MISLBF


WESTERN AND NORTH CENTRAL NEBRASKA HOURLY WEATHER ROUNDUP
NATIONAL WEATHER SERVICE NORTH PLATTE NE
400 PM CDT MON OCT 23 2017

NOTE: "FAIR" INDICATES FEW OR NO CLOUDS BELOW 12,000 FEET WITH NO
SIGNIFICANT WEATHER AND/OR OBSTRUCTIONS TO VISIBILITY.

NOTE: STATIONS NOT REPORTING VARIABLES SUCH AS SKY/WEATHER OR
PRESSURE ARE PROVIDED BY RAWS AND APRS NETWORKS AND ARE NOT UNDER
NATIONAL WEATHER SERVICE QUALITY CONTROL.

...OBSERVATIONS IN AND NEAR THE EASTERN PANHANDLE OF NEBRASKA...

CITY           SKY/WX    TMP DP  RH WIND       PRES   REMARKS
GORDON         FAIR      57  20  23 N33G46    30.29S
CHADRON        SUNNY     59  13  16 NW26G40   30.34S
ALLIANCE       MOSUNNY   55  17  22 NW39G49   30.33S
SIDNEY         SUNNY     57  18  21 N36G43    30.36S
$$

...OBSERVATIONS IN NORTHERN NEBRASKA AND FAR SOUTHERN SOUTH DAKOTA...

CITY           SKY/WX    TMP DP  RH WIND       PRES   REMARKS
WINNER         LGT RAIN  55  32  41 N24G43    30.18R
VALENTINE      MOSUNNY   57  28  33 NW18G35   30.21S
THEDFORD       MOSUNNY   58  23  26 NW24G52   30.24R
AINSWORTH      LGT RAIN  50  33  53 NW22G54   30.21S
O`NEILL        CLOUDY    55  32  41 NW29G43   30.15R
ORD            SUNNY     59  26  28 N33G48    30.15R
BROKEN BOW     PTSUNNY   59  28  30 N32G45    30.21R
HALSEY           N/A     59  21  23 NW16G31     N/A
BUTTE            N/A     55  32  42 W20G30      N/A
CHAMBERS         N/A     56  30  37 N15         N/A
EWING            N/A     54  34  47 NW23G38     N/A
$$

...OBSERVATIONS IN SOUTHWEST NEBRASKA AND FAR NORTHEAST COLORADO...

CITY           SKY/WX    TMP DP  RH WIND       PRES   REMARKS
HOLYOKE        FAIR      59  19  21 NW26G39   30.34S
IMPERIAL       SUNNY     61  15  16 N35G47    30.30S
OGALLALA       SUNNY     61  16  17 NW32G43   30.30R
NORTH PLATTE   MOSUNNY   61  20  20 N30G43    30.24F
MCCOOK         SUNNY     65  17  15 NW32G46   30.24R
LEXINGTON      MOSUNNY   61  23  22 N30G37    30.22R
STAPLETON        N/A     59  23  25 NW6G16      N/A
GOTHENBURG       N/A     60  20  21 NW21        N/A
CALLAWAY         N/A     59  25  27 N28         N/A
$$

...OBSERVATIONS IN CENTRAL LINCOLN COUNTY AREA...

CITY           SKY/WX    TMP DP  RH WIND       PRES   REMARKS
N.P. AIRPORT   MOSUNNY   61  20  20 N30G43    30.24F
N.P. DOWNTOWN    N/A     60  21  22 NW13G21     N/A
N.P. SOUTHEAST   N/A     60  20  21 N14G28      N/A
N.P. HILLCREST   N/A     60  19  20 N32G45      N/A
$$

...SOME OBSERVATIONS FROM AROUND THE REGION...

CITY           SKY/WX    TMP DP  RH WIND       PRES   REMARKS
DENVER         PTSUNNY   52  23  32 N8G20     30.42S
LIMON          SUNNY     51  21  30 N21G31    30.41S
ASPEN          SUNNY     58  25  28 NW16G24   30.48F
LARAMIE        SUNNY     50  22  33 NW26G33   30.43S
CASPER         SUNNY     53  14  21 NW20G29   30.47R
CHEYENNE       SUNNY     51  18  27 N16G29    30.40S
SCOTTSBLUFF    MOSUNNY   56  17  21 NW32G39   30.37F
GRAND ISLAND   MOSUNNY   60  26  27 NW21G43   30.13R
OMAHA          PTSUNNY   61  32  33 NW26G39   29.98R
SIOUX FALLS    PTSUNNY   56  31  38 NW29G39   30.02R
PIERRE         PTSUNNY   57  34  41 N24G32    30.15S
RAPID CITY     MOSUNNY   58  17  20 NW33G48   30.32R
BISMARCK       CLOUDY    55  28  35 NW28G43   30.13R
KANSAS CITY    MOSUNNY   63  37  38 N18G31    29.97S
HILL CITY      MOSUNNY   64  17  16 NW28G43   30.24S
WICHITA        MOSUNNY   68  24  19 N28G39    30.13R
DODGE CITY     SUNNY     66  25  21 N20G37    30.24S
OKLAHOMA CITY  MOSUNNY   71  42  35 N20G29    30.11R
DALLAS         PTSUNNY   84  42  22 NW12      30.04F
AMARILLO       SUNNY     67  37  33 N20G29    30.27S
$$




USA.gov is the U.S. government's official web portal to all federal, state and local government web resources and services.